| time (UTC) | temp C | wind direction | speed KPH | gust KPH | rain 1hr cm | rain 24hr cm | rain mn cm | humidity % | barometer mb |
| 20260507153921 | 11 | 116 | 1.6 | 1.6 | 0.00 | 0.00 | 0.00 | 51 | 1007.5 |
| 20260507153417 | 11 | 48 | 0.0 | 1.6 | 0.00 | 0.00 | 0.00 | 55 | 1007.4 |
| 20260507152914 | 10 | 91 | 0.0 | 1.6 | 0.00 | 0.00 | 0.00 | 56 | 1007.4 |
| 20260507152410 | 11 | 56 | 3.2 | 4.8 | 0.00 | 0.00 | 0.00 | 54 | 1007.4 |
| 20260507151906 | 10 | 54 | 1.6 | 3.2 | 0.00 | 0.00 | 0.00 | 61 | 1007.7 |
| 20260507151403 | 10 | 99 | 0.0 | 1.6 | 0.00 | 0.00 | 0.00 | 58 | 1007.6 |
| 20260507150900 | 10 | 47 | 1.6 | 1.6 | 0.00 | 0.00 | 0.00 | 66 | 1007.4 |
| 20260507150356 | 10 | 43 | 1.6 | 1.6 | 0.00 | 0.00 | 0.00 | 65 | 1007.6 |
| 20260507145853 | 10 | 308 | 3.2 | 4.8 | 0.00 | 0.00 | 0.00 | 58 | 1007.5 |
| 20260507145349 | 10 | 41 | 1.6 | 3.2 | 0.00 | 0.00 | 0.00 | 55 | 1007.5 |
| 20260507144846 | 10 | 105 | 4.8 | 6.4 | 0.00 | 0.00 | 0.00 | 56 | 1007.6 |
| 20260507144343 | 10 | 89 | 0.0 | 0.0 | 0.00 | 0.00 | 0.00 | 63 | 1007.5 |
| 20260507143840 | 10 | 44 | 1.6 | 1.6 | 0.00 | 0.00 | 0.00 | 59 | 1007.6 |
| 20260507143337 | 10 | 59 | 0.0 | 1.6 | 0.00 | 0.00 | 0.00 | 63 | 1007.6 |
| 20260507142833 | 9 | 56 | 0.0 | 0.0 | 0.00 | 0.00 | 0.00 | 65 | 1007.7 |
| 20260507142330 | 9 | 98 | 0.0 | 0.0 | 0.00 | 0.00 | 0.00 | 64 | 1007.5 |
| 20260507141826 | 9 | 204 | 0.0 | 0.0 | 0.00 | 0.00 | 0.00 | 69 | 1007.5 |
| 20260507141323 | 8 | 48 | 3.2 | 3.2 | 0.00 | 0.00 | 0.00 | 67 | 1007.5 |
| 20260507140820 | 9 | 55 | 4.8 | 4.8 | 0.00 | 0.00 | 0.00 | 60 | 1007.3 |
| 20260507140316 | 9 | 305 | 1.6 | 3.2 | 0.00 | 0.00 | 0.00 | 73 | 1007.4 |
| 20260507135814 | 9 | 282 | 0.0 | 1.6 | 0.00 | 0.00 | 0.00 | 72 | 1007.6 |
| 20260507135311 | 8 | 130 | 0.0 | 0.0 | 0.00 | 0.00 | 0.00 | 70 | 1007.4 |
| 20260507134808 | 8 | 346 | 1.6 | 3.2 | 0.00 | 0.00 | 0.00 | 70 | 1007.3 |
| 20260507134303 | 8 | 92 | 1.6 | 1.6 | 0.00 | 0.00 | 0.00 | 75 | 1007.4 |
| 20260507133759 | 8 | 68 | 0.0 | 0.0 | 0.00 | 0.00 | 0.00 | 81 | 1007.2 |
| 20260507133256 | 8 | 35 | 1.6 | 3.2 | 0.00 | 0.00 | 0.00 | 82 | 1007.4 |
| 20260507132754 | 7 | 242 | 0.0 | 1.6 | 0.00 | 0.00 | 0.00 | 78 | 1007.3 |
| 20260507132250 | 7 | 160 | 0.0 | 0.0 | 0.00 | 0.00 | 0.00 | 85 | 1007.4 |
| 20260507131747 | 7 | 100 | 0.0 | 0.0 | 0.00 | 0.00 | 0.00 | 86 | 1007.3 |
| 20260507131244 | 7 | 164 | 0.0 | 0.0 | 0.00 | 0.00 | 0.00 | 81 | 1007.5 |
| 20260507130741 | 7 | 76 | 0.0 | 0.0 | 0.00 | 0.00 | 0.00 | 78 | 1007.5 |
| 20260507130238 | 7 | 120 | 0.0 | 0.0 | 0.00 | 0.00 | 0.00 | 86 | 1007.7 |
| 20260507125737 | 7 | 284 | 3.2 | 3.2 | 0.00 | 0.00 | 0.00 | 83 | 1007.4 |
| 20260507125234 | 7 | 214 | 0.0 | 0.0 | 0.00 | 0.00 | 0.00 | 86 | 1007.4 |
| 20260507124731 | 6 | 149 | 0.0 | 0.0 | 0.00 | 0.00 | 0.00 | 87 | 1007.5 |
| 20260507124228 | 6 | 183 | 0.0 | 0.0 | 0.00 | 0.00 | 0.00 | 95 | 1007.5 |
| 20260507123726 | 6 | 80 | 0.0 | 0.0 | 0.00 | 0.00 | 0.00 | 95 | 1007.5 |
| 20260507123223 | 5 | 97 | 0.0 | 0.0 | 0.00 | 0.00 | 0.00 | 97 | 1007.3 |
| 20260507122718 | 6 | 137 | 0.0 | 0.0 | 0.00 | 0.00 | 0.00 | 98 | 1007.3 |
| 20260507122214 | 6 | 184 | 0.0 | 0.0 | 0.00 | 0.00 | 0.00 | 97 | 1007.5 |
| 20260507121710 | 6 | 196 | 0.0 | 0.0 | 0.00 | 0.00 | 0.00 | 99 | 1007.4 |
| 20260507121206 | 6 | 157 | 0.0 | 0.0 | 0.00 | 0.00 | 0.00 | 99 | 1007.3 |
| 20260507120703 | 6 | 206 | 0.0 | 0.0 | 0.00 | 0.00 | 0.00 | 99 | 1007.4 |
| 20260507120200 | 6 | 189 | 0.0 | 0.0 | 0.00 | 0.00 | 0.00 | 99 | 1007.3 |
| 20260507115656 | 6 | 221 | 0.0 | 0.0 | 0.00 | 0.00 | 0.00 | 99 | 1007.4 |
| 20260507115151 | 6 | 225 | 0.0 | 0.0 | 0.00 | 0.00 | 0.00 | 99 | 1007.3 |
| 20260507114648 | 6 | 162 | 0.0 | 0.0 | 0.00 | 0.00 | 0.00 | 99 | 1006.9 |
| 20260507114145 | 6 | 197 | 0.0 | 0.0 | 0.00 | 0.00 | 0.00 | 99 | 1007.1 |
| 20260507113642 | 6 | 137 | 0.0 | 0.0 | 0.00 | 0.00 | 0.00 | 99 | 1006.9 |
| 20260507113139 | 6 | 30 | 0.0 | 0.0 | 0.00 | 0.00 | 0.00 | 99 | 1006.9 |
| 20260507112637 | 6 | 30 | 0.0 | 0.0 | 0.00 | 0.00 | 0.00 | 99 | 1007.1 |
| 20260507112133 | 6 | 31 | 0.0 | 0.0 | 0.00 | 0.00 | 0.00 | 99 | 1006.6 |
| 20260507111631 | 5 | 175 | 3.2 | 3.2 | 0.00 | 0.00 | 0.00 | 99 | 1006.6 |
| 20260507111127 | 5 | 117 | 0.0 | 0.0 | 0.00 | 0.00 | 0.00 | 99 | 1007.2 |
| 20260507110623 | 5 | 117 | 0.0 | 0.0 | 0.00 | 0.00 | 0.00 | 99 | 1006.8 |
| 20260507110120 | 5 | 116 | 0.0 | 0.0 | 0.00 | 0.00 | 0.00 | 99 | 1007.2 |
| 20260507105617 | 5 | 130 | 0.0 | 0.0 | 0.00 | 0.00 | 0.00 | 99 | 1007.2 |
| 20260507105113 | 5 | 130 | 0.0 | 0.0 | 0.00 | 0.00 | 0.00 | 99 | 1007.2 |
| 20260507104611 | 5 | 130 | 0.0 | 0.0 | 0.00 | 0.00 | 0.00 | 99 | 1006.9 |
| 20260507104107 | 5 | 129 | 0.0 | 0.0 | 0.00 | 0.00 | 0.00 | 99 | 1007.3 |
| 20260507103603 | 5 | 130 | 0.0 | 0.0 | 0.00 | 0.00 | 0.00 | 99 | 1007.2 |
| 20260507103100 | 5 | 136 | 0.0 | 0.0 | 0.00 | 0.00 | 0.00 | 99 | 1006.9 |
| 20260507102556 | 5 | 136 | 0.0 | 0.0 | 0.00 | 0.00 | 0.00 | 99 | 1006.9 |
| 20260507102052 | 5 | 135 | 0.0 | 0.0 | 0.00 | 0.00 | 0.00 | 99 | 1007.1 |
| 20260507101548 | 5 | 135 | 0.0 | 0.0 | 0.00 | 0.00 | 0.00 | 99 | 1006.9 |
| 20260507101045 | 5 | 135 | 0.0 | 0.0 | 0.00 | 0.00 | 0.00 | 99 | 1006.9 |
| 20260507100542 | 5 | 135 | 0.0 | 0.0 | 0.00 | 0.00 | 0.00 | 99 | 1007.1 |
| 20260507100040 | 5 | 135 | 0.0 | 0.0 | 0.00 | 0.00 | 0.00 | 99 | 1006.7 |
| 20260507095538 | 5 | 135 | 0.0 | 0.0 | 0.00 | 0.00 | 0.00 | 99 | 1006.7 |
| 20260507095034 | 5 | 134 | 0.0 | 0.0 | 0.00 | 0.00 | 0.00 | 99 | 1006.7 |
| 20260507094531 | 5 | 159 | 0.0 | 0.0 | 0.00 | 0.00 | 0.00 | 99 | 1006.9 |
| 20260507094028 | 5 | 159 | 0.0 | 0.0 | 0.00 | 0.00 | 0.00 | 99 | 1007.1 |
| 20260507093525 | 5 | 159 | 0.0 | 0.0 | 0.00 | 0.00 | 0.00 | 99 | 1006.7 |
| 20260507093024 | 5 | 159 | 0.0 | 0.0 | 0.00 | 0.00 | 0.00 | 99 | 1006.9 |
| 20260507092520 | 5 | 159 | 0.0 | 0.0 | 0.00 | 0.00 | 0.00 | 99 | 1007.3 |
| 20260507092016 | 5 | 159 | 0.0 | 0.0 | 0.00 | 0.00 | 0.00 | 99 | 1007.1 |
| 20260507091513 | 5 | 159 | 0.0 | 0.0 | 0.00 | 0.00 | 0.00 | 99 | 1006.9 |
| 20260507091009 | 5 | 158 | 0.0 | 0.0 | 0.00 | 0.00 | 0.00 | 99 | 1006.8 |
| 20260507090505 | 5 | 159 | 0.0 | 0.0 | 0.00 | 0.00 | 0.00 | 99 | 1007.1 |
| 20260507090002 | 5 | 159 | 0.0 | 0.0 | 0.00 | 0.00 | 0.00 | 99 | 1007.3 |
| 20260507085459 | 5 | 159 | 0.0 | 0.0 | 0.00 | 0.00 | 0.00 | 99 | 1007.3 |
| 20260507084955 | 5 | 159 | 0.0 | 0.0 | 0.00 | 0.00 | 0.00 | 99 | 1007.3 |
| 20260507084453 | 5 | 159 | 0.0 | 0.0 | 0.00 | 0.00 | 0.00 | 99 | 1007.1 |
| 20260507083949 | 5 | 159 | 0.0 | 0.0 | 0.00 | 0.00 | 0.00 | 99 | 1007.1 |
| 20260507083446 | 5 | 159 | 0.0 | 0.0 | 0.00 | 0.00 | 0.00 | 99 | 1006.9 |
| 20260507082943 | 5 | 159 | 0.0 | 0.0 | 0.00 | 0.00 | 0.00 | 99 | 1006.8 |
| 20260507082439 | 5 | 159 | 0.0 | 0.0 | 0.00 | 0.00 | 0.00 | 99 | 1007.1 |
| 20260507081935 | 5 | 159 | 0.0 | 0.0 | 0.00 | 0.00 | 0.00 | 99 | 1007.1 |
| 20260507081431 | 5 | 159 | 0.0 | 0.0 | 0.00 | 0.00 | 0.00 | 99 | 1007.2 |
| 20260507080928 | 5 | 159 | 0.0 | 0.0 | 0.00 | 0.00 | 0.00 | 99 | 1007.3 |
| 20260507080425 | 5 | 159 | 0.0 | 0.0 | 0.00 | 0.00 | 0.00 | 99 | 1007.3 |
| 20260507075920 | 5 | 160 | 0.0 | 0.0 | 0.00 | 0.00 | 0.00 | 99 | 1007.4 |
| 20260507075416 | 5 | 160 | 0.0 | 0.0 | 0.00 | 0.00 | 0.00 | 99 | 1007.2 |
| 20260507074908 | 5 | 160 | 0.0 | 0.0 | 0.00 | 0.00 | 0.00 | 99 | 1006.9 |
| 20260507074405 | 5 | 167 | 0.0 | 0.0 | 0.00 | 0.00 | 0.00 | 99 | 1006.9 |
| 20260507073903 | 5 | 149 | 0.0 | 0.0 | 0.00 | 0.00 | 0.00 | 99 | 1006.8 |
| 20260507073358 | 5 | 149 | 0.0 | 0.0 | 0.00 | 0.00 | 0.00 | 99 | 1006.7 |
| 20260507072856 | 5 | 149 | 0.0 | 0.0 | 0.00 | 0.00 | 0.00 | 99 | 1006.7 |
| 20260507072353 | 5 | 149 | 0.0 | 0.0 | 0.00 | 0.00 | 0.00 | 99 | 1006.6 |
| 20260507071850 | 5 | 149 | 0.0 | 0.0 | 0.00 | 0.00 | 0.00 | 99 | 1006.6 |
| 20260507071348 | 6 | 125 | 0.0 | 0.0 | 0.00 | 0.00 | 0.00 | 99 | 1006.3 |
| 20260507070843 | 6 | 274 | 0.0 | 0.0 | 0.00 | 0.00 | 0.00 | 99 | 1006.6 |
| 20260507070341 | 6 | 274 | 0.0 | 0.0 | 0.00 | 0.00 | 0.00 | 99 | 1006.4 |
| 20260507065838 | 6 | 274 | 0.0 | 0.0 | 0.00 | 0.00 | 0.00 | 99 | 1006.4 |
| 20260507065335 | 6 | 274 | 0.0 | 0.0 | 0.00 | 0.00 | 0.00 | 99 | 1006.4 |
| 20260507064831 | 6 | 274 | 0.0 | 0.0 | 0.00 | 0.00 | 0.00 | 99 | 1006.3 |
| 20260507064330 | 6 | 274 | 0.0 | 0.0 | 0.00 | 0.00 | 0.00 | 99 | 1006.5 |
| 20260507063828 | 6 | 274 | 0.0 | 0.0 | 0.00 | 0.00 | 0.00 | 99 | 1006.6 |
| 20260507063324 | 6 | 274 | 1.6 | 1.6 | 0.00 | 0.00 | 0.00 | 99 | 1006.8 |
| 20260507062821 | 6 | 274 | 0.0 | 0.0 | 0.00 | 0.00 | 0.00 | 99 | 1006.4 |
| 20260507062318 | 6 | 274 | 0.0 | 0.0 | 0.00 | 0.00 | 0.00 | 99 | 1006.6 |
| 20260507061816 | 6 | 274 | 0.0 | 0.0 | 0.00 | 0.00 | 0.00 | 99 | 1006.5 |
| 20260507061314 | 6 | 275 | 0.0 | 0.0 | 0.00 | 0.00 | 0.00 | 99 | 1006.3 |
| 20260507060812 | 6 | 275 | 0.0 | 0.0 | 0.00 | 0.00 | 0.00 | 99 | 1006.6 |
| 20260507060308 | 6 | 249 | 0.0 | 0.0 | 0.00 | 0.00 | 0.00 | 99 | 1006.7 |
| 20260507055805 | 6 | 246 | 0.0 | 0.0 | 0.00 | 0.00 | 0.00 | 99 | 1006.7 |
| 20260507055300 | 6 | 247 | 0.0 | 0.0 | 0.00 | 0.00 | 0.00 | 99 | 1006.8 |
| 20260507054756 | 6 | 217 | 0.0 | 0.0 | 0.00 | 0.00 | 0.00 | 99 | 1007.1 |
| 20260507054253 | 6 | 267 | 0.0 | 0.0 | 0.00 | 0.00 | 0.00 | 99 | 1007.3 |
| 20260507053751 | 6 | 215 | 0.0 | 0.0 | 0.00 | 0.00 | 0.00 | 99 | 1007.3 |
| 20260507053248 | 6 | 258 | 0.0 | 0.0 | 0.00 | 0.00 | 0.00 | 99 | 1006.9 |
| 20260507052747 | 6 | 257 | 0.0 | 0.0 | 0.00 | 0.00 | 0.00 | 99 | 1007.2 |
| 20260507052243 | 6 | 257 | 0.0 | 0.0 | 0.00 | 0.00 | 0.00 | 99 | 1007.4 |
| 20260507051741 | 6 | 251 | 0.0 | 0.0 | 0.00 | 0.00 | 0.00 | 99 | 1007.2 |
| 20260507051238 | 6 | 251 | 0.0 | 0.0 | 0.00 | 0.00 | 0.00 | 99 | 1006.8 |
| 20260507050734 | 6 | 251 | 0.0 | 0.0 | 0.00 | 0.00 | 0.00 | 99 | 1007.2 |
| 20260507050232 | 6 | 251 | 0.0 | 0.0 | 0.00 | 0.00 | 0.00 | 99 | 1007.2 |
| 20260507045728 | 6 | 251 | 0.0 | 0.0 | 0.00 | 0.00 | 0.00 | 99 | 1007.5 |
| 20260507045224 | 6 | 252 | 0.0 | 0.0 | 0.00 | 0.00 | 0.00 | 99 | 1007.2 |
| 20260507044722 | 6 | 247 | 0.0 | 0.0 | 0.00 | 0.00 | 0.00 | 99 | 1007.2 |
| 20260507044218 | 6 | 91 | 0.0 | 0.0 | 0.00 | 0.00 | 0.00 | 99 | 1006.6 |
| 20260507043714 | 6 | 89 | 0.0 | 0.0 | 0.00 | 0.00 | 0.00 | 99 | 1006.8 |
| 20260507043211 | 6 | 89 | 0.0 | 0.0 | 0.00 | 0.00 | 0.00 | 99 | 1007.1 |
| 20260507042708 | 6 | 97 | 0.0 | 0.0 | 0.00 | 0.00 | 0.00 | 99 | 1006.9 |
| 20260507042203 | 7 | 90 | 0.0 | 0.0 | 0.00 | 0.00 | 0.00 | 99 | 1007.2 |
| 20260507041700 | 7 | 90 | 0.0 | 0.0 | 0.00 | 0.00 | 0.00 | 99 | 1007.1 |
| 20260507041156 | 7 | 214 | 0.0 | 0.0 | 0.00 | 0.00 | 0.00 | 99 | 1006.8 |
| 20260507040654 | 7 | 214 | 0.0 | 0.0 | 0.00 | 0.00 | 0.00 | 99 | 1006.8 |
| 20260507040150 | 7 | 214 | 0.0 | 0.0 | 0.00 | 0.00 | 0.00 | 99 | 1006.6 |
| 20260507035646 | 7 | 214 | 0.0 | 0.0 | 0.00 | 1.80 | 1.80 | 99 | 1006.7 |
| 20260507035142 | 7 | 214 | 0.0 | 0.0 | 0.00 | 1.80 | 1.80 | 99 | 1006.7 |
| 20260507034639 | 7 | 214 | 0.0 | 0.0 | 0.00 | 1.80 | 1.80 | 99 | 1006.7 |
| 20260507034137 | 7 | 214 | 0.0 | 0.0 | 0.00 | 1.80 | 1.80 | 99 | 1006.6 |
| 20260507033635 | 7 | 214 | 0.0 | 0.0 | 0.00 | 1.80 | 1.80 | 99 | 1006.6 |
| 20260507033132 | 7 | 214 | 0.0 | 0.0 | 0.00 | 1.80 | 1.80 | 99 | 1006.9 |
| 20260507032629 | 7 | 214 | 0.0 | 0.0 | 0.00 | 1.80 | 1.80 | 99 | 1007.3 |
| 20260507032125 | 7 | 214 | 0.0 | 0.0 | 0.00 | 1.80 | 1.80 | 99 | 1007.1 |
| 20260507031622 | 7 | 214 | 0.0 | 0.0 | 0.00 | 1.80 | 1.80 | 99 | 1007.3 |
| 20260507031118 | 7 | 214 | 0.0 | 0.0 | 0.00 | 1.80 | 1.80 | 99 | 1007.2 |
| 20260507030615 | 7 | 214 | 0.0 | 0.0 | 0.00 | 1.80 | 1.80 | 99 | 1007.2 |
| 20260507030113 | 7 | 214 | 0.0 | 0.0 | 0.00 | 1.80 | 1.80 | 99 | 1007.1 |
| 20260507025610 | 7 | 214 | 0.0 | 0.0 | 0.00 | 1.80 | 1.80 | 99 | 1007.1 |
| 20260507025106 | 7 | 214 | 0.0 | 0.0 | 0.00 | 1.80 | 1.80 | 99 | 1007.2 |
| 20260507024604 | 7 | 214 | 0.0 | 0.0 | 0.18 | 1.80 | 1.80 | 99 | 1007.2 |
| 20260507024101 | 7 | 214 | 0.0 | 0.0 | 0.18 | 1.80 | 1.80 | 99 | 1007.3 |
| 20260507023556 | 7 | 214 | 0.0 | 0.0 | 0.00 | 1.78 | 1.78 | 99 | 1007.6 |
| 20260507023054 | 7 | 214 | 0.0 | 0.0 | 0.00 | 1.78 | 1.78 | 99 | 1007.4 |
| 20260507022551 | 7 | 214 | 0.0 | 0.0 | 0.00 | 1.78 | 1.78 | 99 | 1007.7 |
| 20260507022041 | 7 | 214 | 0.0 | 0.0 | 0.00 | 1.78 | 1.78 | 99 | 1007.7 |
| 20260507021537 | 7 | 214 | 0.0 | 0.0 | 0.00 | 1.78 | 1.78 | 99 | 1007.4 |
| 20260507021034 | 7 | 214 | 0.0 | 0.0 | 0.00 | 1.78 | 1.78 | 99 | 1007.4 |
| 20260507020532 | 7 | 214 | 0.0 | 0.0 | 0.00 | 1.78 | 1.78 | 99 | 1007.2 |
| 20260507020028 | 7 | 214 | 0.0 | 0.0 | 0.00 | 1.78 | 1.78 | 99 | 1007.5 |
| 20260507015526 | 7 | 214 | 0.0 | 0.0 | 0.00 | 1.78 | 1.78 | 99 | 1007.2 |
| 20260507015024 | 7 | 214 | 0.0 | 0.0 | 0.00 | 1.78 | 1.78 | 99 | 1007.4 |
| 20260507014520 | 7 | 214 | 0.0 | 0.0 | 0.13 | 1.78 | 1.78 | 99 | 1007.4 |
| 20260507014016 | 7 | 213 | 0.0 | 0.0 | 0.13 | 1.78 | 1.78 | 99 | 1007.2 |
| 20260507013513 | 7 | 213 | 0.0 | 0.0 | 0.13 | 1.78 | 1.78 | 99 | 1007.4 |
| 20260507013010 | 7 | 213 | 0.0 | 0.0 | 0.00 | 1.75 | 1.75 | 99 | 1007.3 |
| 20260507012507 | 7 | 213 | 0.0 | 0.0 | 0.00 | 1.75 | 1.75 | 99 | 1007.2 |
| 20260507012003 | 7 | 213 | 0.0 | 0.0 | 0.00 | 1.75 | 1.75 | 99 | 1006.9 |
| 20260507011500 | 7 | 214 | 0.0 | 0.0 | 0.00 | 1.75 | 1.75 | 99 | 1007.2 |
| 20260507010950 | 7 | 287 | 1.6 | 1.6 | 0.18 | 1.75 | 1.75 | 99 | 1007.3 |
| 20260507010444 | 7 | 236 | 0.0 | 0.0 | 0.18 | 1.75 | 1.75 | 99 | 1007.1 |
| 20260507005942 | 7 | 236 | 0.0 | 0.0 | 0.00 | 1.73 | 1.73 | 99 | 1007.1 |
| 20260507005439 | 7 | 247 | 0.0 | 0.0 | 0.13 | 1.73 | 1.73 | 99 | 1006.9 |
| 20260507004935 | 7 | 257 | 0.0 | 0.0 | 0.13 | 1.73 | 1.73 | 99 | 1006.6 |
| 20260507004432 | 8 | 190 | 0.0 | 0.0 | 0.13 | 1.73 | 1.73 | 99 | 1006.6 |
| 20260507003930 | 8 | 191 | 0.0 | 0.0 | 0.00 | 1.70 | 1.70 | 99 | 1006.6 |
| 20260507003425 | 8 | 191 | 0.0 | 0.0 | 0.00 | 1.70 | 1.70 | 99 | 1006.6 |
| 20260507002920 | 7 | 190 | 0.0 | 0.0 | 0.00 | 1.70 | 1.70 | 99 | 1006.3 |
| 20260507002417 | 7 | 192 | 0.0 | 0.0 | 0.00 | 1.70 | 1.70 | 99 | 1006.1 |
| 20260507001914 | 8 | 196 | 0.0 | 0.0 | 0.00 | 1.70 | 1.70 | 99 | 1006.1 |
| 20260507001410 | 8 | 291 | 1.6 | 3.2 | 0.00 | 1.70 | 1.70 | 99 | 1006.0 |
| 20260507000908 | 8 | 214 | 0.0 | 0.0 | 0.00 | 1.70 | 1.70 | 99 | 1006.1 |
| 20260507000405 | 8 | 221 | 0.0 | 1.6 | 0.00 | 1.70 | 1.70 | 99 | 1005.7 |
| 20260506235859 | 8 | 230 | 1.6 | 1.6 | 0.00 | 1.70 | 1.70 | 99 | 1005.8 |
| 20260506235357 | 8 | 210 | 0.0 | 0.0 | 0.00 | 1.70 | 1.70 | 99 | 1005.7 |
| 20260506234852 | 8 | 225 | 0.0 | 0.0 | 0.00 | 1.70 | 1.70 | 99 | 1005.5 |
| 20260506234350 | 8 | 128 | 0.0 | 0.0 | 0.00 | 1.70 | 1.70 | 99 | 1005.2 |
| 20260506233848 | 8 | 79 | 0.0 | 0.0 | 0.00 | 1.70 | 1.70 | 99 | 1005.2 |
| 20260506233343 | 8 | 133 | 0.0 | 0.0 | 0.00 | 1.70 | 1.70 | 99 | 1005.1 |
| 20260506232841 | 8 | 217 | 0.0 | 0.0 | 0.00 | 1.70 | 1.70 | 99 | 1004.9 |
| 20260506232336 | 8 | 15 | 0.0 | 0.0 | 0.00 | 1.70 | 1.70 | 99 | 1004.9 |
| 20260506231833 | 8 | 218 | 0.0 | 0.0 | 0.18 | 1.70 | 1.70 | 99 | 1004.9 |
| 20260506231331 | 8 | 228 | 0.0 | 1.6 | 0.18 | 1.70 | 1.70 | 99 | 1005.0 |
| 20260506230828 | 8 | 230 | 0.0 | 0.0 | 0.00 | 1.68 | 1.68 | 99 | 1004.9 |
| 20260506230325 | 8 | 230 | 0.0 | 0.0 | 0.00 | 1.68 | 1.68 | 99 | 1004.9 |
| 20260506225820 | 8 | 274 | 3.2 | 3.2 | 0.00 | 1.68 | 1.68 | 99 | 1004.7 |
| 20260506225318 | 8 | 227 | 0.0 | 0.0 | 0.00 | 1.68 | 1.68 | 99 | 1004.7 |
| 20260506224815 | 9 | 227 | 0.0 | 0.0 | 0.00 | 1.68 | 1.68 | 99 | 1004.6 |
| 20260506224312 | 8 | 229 | 0.0 | 0.0 | 0.00 | 1.68 | 1.68 | 99 | 1004.6 |
| 20260506223809 | 9 | 260 | 0.0 | 0.0 | 0.00 | 1.68 | 1.68 | 99 | 1004.7 |
| 20260506223303 | 9 | 290 | 0.0 | 1.6 | 0.00 | 1.68 | 1.68 | 99 | 1004.6 |
| 20260506222800 | 9 | 217 | 1.6 | 1.6 | 0.00 | 1.68 | 1.68 | 99 | 1004.5 |
| 20260506222255 | 9 | 349 | 0.0 | 0.0 | 0.00 | 1.68 | 1.68 | 99 | 1004.6 |
| 20260506221749 | 9 | 111 | 0.0 | 0.0 | 0.00 | 1.68 | 1.68 | 99 | 1004.3 |
| 20260506221246 | 9 | 132 | 0.0 | 0.0 | 0.00 | 1.68 | 1.68 | 99 | 1004.3 |
| 20260506220744 | 10 | 346 | 0.0 | 1.6 | 0.00 | 1.68 | 1.68 | 99 | 1004.3 |
| 20260506220238 | 10 | 126 | 0.0 | 0.0 | 0.00 | 1.68 | 1.68 | 99 | 1004.1 |
| 20260506215735 | 10 | 232 | 0.0 | 1.6 | 0.00 | 1.68 | 1.68 | 99 | 1004.0 |
| 20260506215230 | 10 | 134 | 0.0 | 0.0 | 0.00 | 1.68 | 1.68 | 99 | 1003.9 |
| 20260506214727 | 10 | 141 | 0.0 | 0.0 | 0.00 | 1.68 | 1.68 | 99 | 1003.8 |
| 20260506214225 | 10 | 164 | 0.0 | 0.0 | 0.00 | 1.68 | 1.68 | 99 | 1003.7 |
| 20260506213722 | 11 | 141 | 0.0 | 0.0 | 0.00 | 1.68 | 1.68 | 99 | 1003.9 |
| 20260506213219 | 11 | 86 | 0.0 | 0.0 | 0.00 | 1.68 | 1.68 | 99 | 1003.7 |
| 20260506212716 | 11 | 99 | 0.0 | 0.0 | 0.00 | 1.68 | 1.68 | 99 | 1003.7 |
| 20260506212211 | 11 | 99 | 0.0 | 1.6 | 0.00 | 1.68 | 1.68 | 99 | 1003.7 |
| 20260506211707 | 11 | 160 | 0.0 | 0.0 | 0.00 | 1.68 | 1.68 | 99 | 1003.3 |
| 20260506211204 | 12 | 132 | 1.6 | 1.6 | 0.00 | 1.68 | 1.68 | 99 | 1003.8 |
| 20260506210701 | 13 | 238 | 0.0 | 0.0 | 0.00 | 1.68 | 1.68 | 99 | 1003.5 |
| 20260506210158 | 15 | 259 | 1.6 | 1.6 | 0.00 | 1.68 | 1.68 | 99 | 1003.5 |
| 20260506205656 | 15 | 45 | 0.0 | 0.0 | 0.13 | 1.68 | 1.68 | 99 | 1003.6 |
| 20260506205155 | 15 | 45 | 0.0 | 0.0 | 0.13 | 1.68 | 1.68 | 99 | 1003.5 |
| 20260506204654 | 15 | 45 | 0.0 | 0.0 | 0.18 | 1.65 | 1.65 | 99 | 1003.4 |
| 20260506204150 | 15 | 45 | 0.0 | 0.0 | 0.18 | 1.65 | 1.65 | 99 | 1003.1 |
| 20260506203648 | 15 | 45 | 0.0 | 0.0 | 0.13 | 1.63 | 1.63 | 99 | 1003.2 |
| 20260506203145 | 15 | 46 | 0.0 | 0.0 | 0.13 | 1.63 | 1.63 | 99 | 1003.1 |
| 20260506202643 | 15 | 236 | 0.0 | 0.0 | 0.13 | 1.63 | 1.63 | 99 | 1003.0 |
| 20260506202139 | 15 | 237 | 0.0 | 0.0 | 0.18 | 1.60 | 1.60 | 99 | 1003.2 |
| 20260506201636 | 15 | 266 | 1.6 | 1.6 | 0.30 | 1.60 | 1.60 | 99 | 1003.0 |
| 20260506201132 | 15 | 148 | 0.0 | 0.0 | 0.48 | 1.57 | 1.57 | 99 | 1003.4 |
| 20260506200629 | 15 | 82 | 0.0 | 0.0 | 0.36 | 1.55 | 1.55 | 99 | 1003.4 |
| 20260506200126 | 15 | 104 | 0.0 | 0.0 | 0.30 | 1.52 | 1.52 | 99 | 1003.1 |
| 20260506195622 | 15 | 104 | 0.0 | 0.0 | 0.43 | 1.50 | 1.50 | 99 | 1003.2 |
| 20260506195119 | 15 | 105 | 0.0 | 0.0 | 0.30 | 1.47 | 1.47 | 99 | 1003.3 |
| 20260506194617 | 15 | 104 | 0.0 | 0.0 | 0.00 | 1.42 | 1.42 | 99 | 1003.1 |
| 20260506194113 | 15 | 104 | 0.0 | 0.0 | 0.00 | 1.42 | 1.42 | 99 | 1003.6 |
| 20260506193611 | 15 | 104 | 0.0 | 0.0 | 0.18 | 1.42 | 1.42 | 99 | 1003.4 |
| 20260506193108 | 15 | 104 | 0.0 | 0.0 | 0.18 | 1.42 | 1.42 | 99 | 1003.8 |
| 20260506192605 | 15 | 105 | 0.0 | 0.0 | 0.18 | 1.42 | 1.42 | 99 | 1003.5 |
| 20260506192100 | 15 | 93 | 0.0 | 0.0 | 0.00 | 1.40 | 1.40 | 99 | 1003.5 |
| 20260506191557 | 15 | 131 | 0.0 | 0.0 | 0.00 | 1.40 | 1.40 | 99 | 1003.8 |
| 20260506191053 | 15 | 112 | 1.6 | 1.6 | 0.00 | 1.40 | 1.40 | 99 | 1003.6 |
| 20260506190551 | 15 | 93 | 0.0 | 0.0 | 0.00 | 1.40 | 1.40 | 99 | 1003.7 |
| 20260506190048 | 15 | 156 | 0.0 | 0.0 | 0.13 | 1.40 | 1.40 | 99 | 1003.5 |
| 20260506185545 | 15 | 157 | 0.0 | 0.0 | 0.13 | 1.40 | 1.40 | 99 | 1003.6 |
| 20260506185041 | 15 | 156 | 0.0 | 0.0 | 0.00 | 1.37 | 1.37 | 99 | 1003.9 |
| 20260506184538 | 15 | 157 | 0.0 | 0.0 | 0.00 | 1.37 | 1.37 | 99 | 1003.9 |
| 20260506184035 | 15 | 156 | 0.0 | 0.0 | 0.00 | 1.37 | 1.37 | 99 | 1004.0 |
| 20260506183531 | 15 | 157 | 0.0 | 0.0 | 0.00 | 1.37 | 1.37 | 99 | 1003.8 |
| 20260506183028 | 15 | 157 | 0.0 | 0.0 | 0.18 | 1.37 | 1.37 | 99 | 1003.8 |
| 20260506182525 | 14 | 157 | 0.0 | 0.0 | 0.18 | 1.37 | 1.37 | 99 | 1004.0 |
| 20260506182022 | 14 | 157 | 0.0 | 0.0 | 0.30 | 1.37 | 1.37 | 99 | 1004.0 |
| 20260506181520 | 14 | 157 | 0.0 | 0.0 | 0.30 | 1.35 | 1.35 | 99 | 1004.1 |
| 20260506181017 | 14 | 157 | 0.0 | 0.0 | 0.30 | 1.32 | 1.32 | 99 | 1004.1 |
| 20260506180514 | 13 | 158 | 0.0 | 0.0 | 0.43 | 1.30 | 1.30 | 99 | 1004.4 |
| 20260506180010 | 13 | 160 | 0.0 | 0.0 | 0.97 | 1.27 | 1.27 | 99 | 1004.3 |
| 20260506175507 | 13 | 160 | 0.0 | 0.0 | 1.07 | 1.22 | 1.22 | 99 | 1004.7 |
| 20260506175003 | 13 | 159 | 0.0 | 0.0 | 0.89 | 1.14 | 1.14 | 99 | 1004.6 |
| 20260506174502 | 13 | 159 | 0.0 | 0.0 | 0.89 | 1.04 | 1.04 | 99 | 1004.4 |
| 20260506173957 | 13 | 147 | 0.0 | 0.0 | 1.85 | 0.99 | 0.99 | 99 | 1004.4 |
| 20260506173455 | 13 | 150 | 3.2 | 3.2 | 2.29 | 0.91 | 0.91 | 99 | 1004.7 |
| 20260506172946 | 13 | 175 | 0.0 | 0.0 | 1.55 | 0.66 | 0.66 | 99 | 1004.7 |
| 20260506172444 | 14 | 180 | 1.6 | 1.6 | 1.19 | 0.51 | 0.51 | 99 | 1005.2 |
| 20260506171940 | 14 | 332 | 0.0 | 1.6 | 0.79 | 0.38 | 0.38 | 99 | 1005.4 |
| 20260506171437 | 14 | 331 | 0.0 | 0.0 | 0.61 | 0.30 | 0.30 | 99 | 1005.3 |
| 20260506170930 | 14 | 331 | 0.0 | 0.0 | 0.48 | 0.25 | 0.25 | 99 | 1005.0 |
| 20260506170425 | 14 | 73 | 0.0 | 0.0 | 0.18 | 0.20 | 0.20 | 99 | 1005.1 |
| 20260506165919 | 14 | 352 | 0.0 | 0.0 | 0.13 | 0.18 | 0.18 | 99 | 1004.8 |
| 20260506165417 | 14 | 352 | 0.0 | 0.0 | 0.13 | 0.18 | 0.18 | 99 | 1005.0 |
| 20260506164912 | 14 | 352 | 0.0 | 0.0 | 0.00 | 0.15 | 0.15 | 99 | 1004.9 |
| 20260506164409 | 14 | 352 | 0.0 | 0.0 | 0.18 | 0.15 | 0.15 | 99 | 1005.2 |
| 20260506163907 | 14 | 352 | 0.0 | 0.0 | 0.18 | 0.15 | 0.15 | 99 | 1005.2 |
| 20260506163401 | 14 | 352 | 0.0 | 0.0 | 0.13 | 0.13 | 0.13 | 99 | 1005.1 |
| 20260506162856 | 14 | 352 | 0.0 | 0.0 | 0.13 | 0.13 | 0.13 | 99 | 1005.2 |
| 20260506162355 | 14 | 352 | 0.0 | 0.0 | 0.00 | 0.10 | 0.10 | 99 | 1005.2 |
| 20260506161852 | 14 | 352 | 0.0 | 0.0 | 0.00 | 0.10 | 0.10 | 99 | 1005.8 |
| 20260506161349 | 14 | 352 | 0.0 | 0.0 | 0.18 | 0.10 | 0.10 | 99 | 1005.6 |
| 20260506160847 | 14 | 352 | 0.0 | 0.0 | 0.18 | 0.10 | 0.10 | 99 | 1005.6 |
| 20260506160343 | 14 | 352 | 0.0 | 0.0 | 0.00 | 0.08 | 0.08 | 99 | 1005.6 |
| 20260506155842 | 14 | 352 | 0.0 | 0.0 | 0.00 | 0.08 | 0.08 | 99 | 1005.8 |
| 20260506155338 | 14 | 351 | 0.0 | 0.0 | 0.00 | 0.08 | 0.08 | 99 | 1005.7 |